| time (UTC) | temp C | wind direction | speed KPH | gust KPH | rain 1hr cm | rain 24hr cm | rain mn cm | humidity % | barometer mb |
| 20260906214507 | 27 | 21 | 3.2 | 12.9 | 0.00 | 0.00 | 0.00 | 62 | 1009.3 |
| 20260906213006 | 27 | 12 | 12.9 | 17.7 | 0.00 | 0.00 | 0.00 | 63 | 1009.4 |
| 20260906211502 | 26 | 360 | 0.0 | 14.5 | 0.00 | 0.00 | 0.00 | 66 | 1009.7 |
| 20260906204602 | 25 | 96 | 4.8 | 14.5 | 0.00 | 0.00 | 0.00 | 71 | 1010.3 |
| 20260906203059 | 24 | 23 | 6.4 | 16.1 | 0.00 | 0.00 | 0.00 | 73 | 1010.6 |
| 20260906201547 | 23 | 47 | 6.4 | 16.1 | 0.00 | 0.00 | 0.00 | 76 | 1010.7 |
| 20260906200043 | 23 | 346 | 11.3 | 20.9 | 0.00 | 0.00 | 0.00 | 78 | 1010.6 |
| 20260906194540 | 22 | 337 | 6.4 | 16.1 | 0.00 | 0.00 | 0.00 | 81 | 1011.0 |
| 20260906193038 | 22 | 309 | 11.3 | 19.3 | 0.00 | 0.00 | 0.00 | 83 | 1011.2 |
| 20260906191535 | 21 | 308 | 9.7 | 17.7 | 0.00 | 0.00 | 0.00 | 84 | 1011.3 |
| 20260906190031 | 21 | 329 | 9.7 | 16.1 | 0.00 | 0.00 | 0.00 | 86 | 1011.5 |
| 20260906184529 | 20 | 350 | 8.0 | 14.5 | 0.00 | 0.00 | 0.00 | 87 | 1011.5 |
| 20260906183026 | 20 | 336 | 9.7 | 14.5 | 0.00 | 0.00 | 0.00 | 88 | 1011.7 |
| 20260906181537 | 20 | 346 | 8.0 | 14.5 | 0.00 | 0.00 | 0.00 | 89 | 1011.8 |
| 20260906180039 | 20 | 325 | 8.0 | 14.5 | 0.00 | 0.00 | 0.00 | 89 | 1011.8 |
| 20260906174524 | 20 | 30 | 8.0 | 12.9 | 0.00 | 0.00 | 0.00 | 89 | 1011.7 |
| 20260906173027 | 20 | 20 | 4.8 | 12.9 | 0.00 | 0.00 | 0.00 | 90 | 1011.6 |
| 20260906171523 | 20 | 338 | 12.9 | 17.7 | 0.00 | 0.00 | 0.00 | 90 | 1011.2 |
| 20260906170127 | 20 | 1 | 8.0 | 16.1 | 0.00 | 0.00 | 0.00 | 90 | 1011.5 |
| 20260906164522 | 20 | 360 | 12.9 | 20.9 | 0.00 | 0.00 | 0.00 | 90 | 1011.5 |
| 20260906163021 | 20 | 349 | 9.7 | 17.7 | 0.00 | 0.00 | 0.00 | 92 | 1011.6 |
| 20260906161524 | 19 | 8 | 11.3 | 16.1 | 0.00 | 0.00 | 0.00 | 93 | 1011.6 |
| 20260906160028 | 19 | 19 | 14.5 | 19.3 | 0.00 | 0.00 | 0.00 | 94 | 1011.3 |
| 20260906154517 | 18 | 40 | 11.3 | 22.5 | 0.00 | 0.00 | 0.00 | 95 | 1011.3 |
| 20260906153020 | 18 | 53 | 17.7 | 29.0 | 0.00 | 0.00 | 0.00 | 95 | 1011.0 |
| 20260906151514 | 18 | 59 | 12.9 | 24.1 | 0.00 | 0.00 | 0.00 | 95 | 1011.1 |
| 20260906150014 | 18 | 56 | 11.3 | 20.9 | 0.00 | 0.00 | 0.00 | 95 | 1011.5 |
| 20260906144514 | 18 | 52 | 12.9 | 25.7 | 0.00 | 0.00 | 0.00 | 96 | 1011.5 |
| 20260906143011 | 18 | 15 | 11.3 | 16.1 | 0.00 | 0.00 | 0.00 | 96 | 1011.8 |
| 20260906141516 | 18 | 44 | 14.5 | 19.3 | 0.00 | 0.00 | 0.00 | 96 | 1011.9 |
| 20260906140009 | 17 | 71 | 4.8 | 16.1 | 0.00 | 0.00 | 0.00 | 95 | 1011.8 |
| 20260906134508 | 17 | 29 | 14.5 | 29.0 | 0.00 | 0.00 | 0.00 | 95 | 1011.2 |
| 20260906133005 | 17 | 3 | 24.1 | 29.0 | 0.00 | 0.00 | 0.00 | 95 | 1011.0 |
| 20260906131505 | 17 | 23 | 22.5 | 29.0 | 0.00 | 0.00 | 0.00 | 95 | 1010.9 |
| 20260906130002 | 17 | 1 | 17.7 | 20.9 | 0.00 | 0.00 | 0.00 | 95 | 1011.5 |
| 20260906124502 | 17 | 35 | 0.0 | 4.8 | 0.00 | 0.00 | 0.00 | 95 | 1012.9 |
| 20260906123001 | 17 | 35 | 0.0 | 3.2 | 0.00 | 0.00 | 0.00 | 95 | 1013.0 |
| 20260906121558 | 17 | 35 | 6.4 | 16.1 | 0.00 | 0.00 | 0.00 | 95 | 1012.7 |
| 20260906120059 | 17 | 358 | 11.3 | 16.1 | 0.00 | 0.00 | 0.00 | 95 | 1012.4 |
| 20260906114557 | 17 | 333 | 14.5 | 19.3 | 0.00 | 0.00 | 0.00 | 95 | 1012.2 |
| 20260906113056 | 17 | 308 | 14.5 | 19.3 | 0.00 | 0.00 | 0.00 | 95 | 1012.3 |
| 20260906111610 | 17 | 310 | 14.5 | 17.7 | 0.00 | 0.00 | 0.00 | 94 | 1012.3 |
| 20260906110057 | 17 | 319 | 11.3 | 17.7 | 0.00 | 0.00 | 0.00 | 94 | 1012.3 |
| 20260906104552 | 17 | 304 | 14.5 | 17.7 | 0.00 | 0.00 | 0.00 | 94 | 1012.3 |
| 20260906103051 | 17 | 318 | 12.9 | 16.1 | 0.00 | 0.00 | 0.00 | 94 | 1012.2 |
| 20260906101549 | 17 | 29 | 4.8 | 8.0 | 0.00 | 0.00 | 0.00 | 94 | 1011.9 |
| 20260906100054 | 17 | 31 | 8.0 | 11.3 | 0.00 | 0.00 | 0.00 | 94 | 1011.5 |
| 20260906094548 | 17 | 40 | 9.7 | 11.3 | 0.00 | 0.00 | 0.00 | 93 | 1011.5 |
| 20260906093045 | 18 | 31 | 11.3 | 16.1 | 0.00 | 0.00 | 0.00 | 93 | 1011.7 |
| 20260906091545 | 18 | 22 | 12.9 | 17.7 | 0.00 | 0.00 | 0.00 | 93 | 1011.7 |
| 20260906090041 | 18 | 17 | 14.5 | 17.7 | 0.00 | 0.00 | 0.00 | 92 | 1011.5 |
| 20260906084540 | 18 | 13 | 16.1 | 22.5 | 0.00 | 0.00 | 0.00 | 92 | 1011.5 |
| 20260906083036 | 18 | 8 | 16.1 | 17.7 | 0.00 | 0.00 | 0.00 | 92 | 1011.5 |
| 20260906081534 | 18 | 17 | 12.9 | 17.7 | 0.00 | 0.00 | 0.00 | 92 | 1011.9 |
| 20260906080034 | 18 | 30 | 12.9 | 19.3 | 0.00 | 0.00 | 0.00 | 91 | 1012.1 |
| 20260906074531 | 19 | 17 | 16.1 | 20.9 | 0.00 | 0.00 | 0.00 | 91 | 1012.2 |
| 20260906073031 | 19 | 15 | 16.1 | 20.9 | 0.00 | 0.00 | 0.00 | 90 | 1012.3 |
| 20260906071525 | 19 | 10 | 14.5 | 19.3 | 0.00 | 0.00 | 0.00 | 90 | 1012.2 |
| 20260906070023 | 19 | 13 | 12.9 | 19.3 | 0.00 | 0.00 | 0.00 | 88 | 1011.9 |
| 20260906064521 | 20 | 7 | 14.5 | 17.7 | 0.00 | 0.00 | 0.00 | 88 | 1012.2 |
| 20260906063018 | 20 | 15 | 16.1 | 20.9 | 0.00 | 0.00 | 0.00 | 87 | 1012.1 |
| 20260906061516 | 20 | 18 | 16.1 | 19.3 | 0.00 | 0.00 | 0.00 | 86 | 1012.2 |
| 20260906060024 | 20 | 15 | 16.1 | 19.3 | 0.00 | 0.00 | 0.00 | 86 | 1012.2 |
| 20260906054524 | 21 | 6 | 16.1 | 22.5 | 0.00 | 0.00 | 0.00 | 85 | 1012.3 |
| 20260906053012 | 21 | 10 | 17.7 | 22.5 | 0.00 | 0.00 | 0.00 | 84 | 1012.3 |
| 20260906051511 | 21 | 7 | 17.7 | 22.5 | 0.00 | 0.00 | 0.00 | 83 | 1012.4 |
| 20260906050111 | 21 | 359 | 17.7 | 22.5 | 0.00 | 0.00 | 0.00 | 82 | 1012.3 |
| 20260906044510 | 21 | 8 | 17.7 | 22.5 | 0.00 | 0.00 | 0.00 | 81 | 1012.5 |
| 20260906043015 | 21 | 6 | 16.1 | 19.3 | 0.00 | 0.00 | 0.00 | 81 | 1012.6 |
| 20260906041509 | 22 | 17 | 17.7 | 22.5 | 0.00 | 0.00 | 0.00 | 80 | 1012.4 |
| 20260906040022 | 22 | 3 | 14.5 | 17.7 | 0.00 | 0.00 | 0.00 | 80 | 1012.6 |
| 20260906034514 | 22 | 14 | 12.9 | 17.7 | 0.00 | 0.00 | 0.00 | 79 | 1012.6 |
| 20260906033021 | 22 | 19 | 12.9 | 17.7 | 0.00 | 0.00 | 0.00 | 79 | 1012.6 |
| 20260906031509 | 22 | 19 | 12.9 | 19.3 | 0.00 | 0.00 | 0.00 | 78 | 1012.5 |
| 20260906030005 | 22 | 20 | 16.1 | 20.9 | 0.00 | 0.00 | 0.00 | 78 | 1012.5 |
| 20260906024505 | 22 | 29 | 11.3 | 16.1 | 0.00 | 0.00 | 0.00 | 77 | 1012.4 |
| 20260906023004 | 22 | 38 | 9.7 | 14.5 | 0.00 | 0.00 | 0.00 | 76 | 1012.3 |
| 20260906021504 | 22 | 27 | 6.4 | 12.9 | 0.00 | 0.00 | 0.00 | 74 | 1012.3 |
| 20260906020000 | 23 | 19 | 14.5 | 17.7 | 0.00 | 0.00 | 0.00 | 72 | 1011.8 |
| 20260906014559 | 23 | 3 | 14.5 | 16.1 | 0.00 | 0.00 | 0.00 | 71 | 1011.6 |
| 20260906013101 | 24 | 352 | 11.3 | 14.5 | 0.00 | 0.00 | 0.00 | 70 | 1011.4 |
| 20260906011556 | 25 | 6 | 12.9 | 16.1 | 0.00 | 0.00 | 0.00 | 68 | 1011.2 |
| 20260906010055 | 25 | 15 | 14.5 | 20.9 | 0.00 | 0.00 | 0.00 | 67 | 1011.0 |
| 20260906004554 | 25 | 32 | 19.3 | 27.4 | 0.00 | 0.00 | 0.00 | 66 | 1010.9 |
| 20260906003054 | 26 | 36 | 19.3 | 25.7 | 0.00 | 0.00 | 0.00 | 66 | 1010.8 |
| 20260906001552 | 26 | 34 | 19.3 | 29.0 | 0.00 | 0.00 | 0.00 | 65 | 1010.7 |
| 20260906000051 | 26 | 36 | 22.5 | 38.6 | 0.00 | 0.00 | 0.00 | 65 | 1010.7 |
| 20260905234549 | 27 | 30 | 24.1 | 29.0 | 0.00 | 0.00 | 0.00 | 64 | 1010.3 |
| 20260905233056 | 27 | 36 | 19.3 | 27.4 | 0.00 | 0.00 | 0.00 | 63 | 1010.1 |
| 20260905231547 | 27 | 27 | 20.9 | 27.4 | 0.00 | 0.00 | 0.00 | 63 | 1010.0 |
| 20260905230046 | 27 | 21 | 17.7 | 25.7 | 0.00 | 0.00 | 0.00 | 63 | 1010.0 |
| 20260905224609 | 27 | 27 | 22.5 | 32.2 | 0.00 | 0.00 | 0.00 | 63 | 1010.0 |
| 20260905223046 | 28 | 4 | 16.1 | 29.0 | 0.00 | 0.00 | 0.00 | 62 | 1010.0 |
| 20260905221542 | 28 | 12 | 12.9 | 24.1 | 0.00 | 0.00 | 0.00 | 59 | 1009.9 |
| 20260905220041 | 28 | 348 | 11.3 | 19.3 | 0.00 | 0.00 | 0.00 | 61 | 1010.1 |